Airfield :







YOU CAN JOIN US ON...

 
LOGIN :

Register | Disclaimer

   EN    FR    IT 

 









Legend :    VFR   Marginal VFR   IFR   Intensive IFR   Very Intensive IFR
Visi :
Ceiling :
>= 8 km
>= 3000ft
5 to 8 km
1000 to 3000 ft
1500m to 5 km
500 to 1000 ft
800 to 1500m
200 to 500 ft
< 800m
< 200 ft
Symbols :   Thunderstorms  Fog  Heavy snow  Heavy precipitations  Wind > 20 kt







- Airport Elevation : 545 ft


KLCI - Laconia Municipal

CURRENT METAR :
  • 131556Z AUTO 00000KT 4SM -RA BR OVC005 03/02 A2993 RMK AO2 SLP155 P0013 T00280022 $

EXPIRED METARs :
  • 131456Z AUTO VRB03KT 9SM RA OVC005 03/03 A2998 RMK AO2 SLP171 P0014 60041 T00280028 58047 $
  • 131356Z AUTO VRB04KT 9SM RA OVC005 03/02 A3003 RMK AO2 SLP189 P0014 T00280022 $

TAF N/A
KZBW FIR / North America



MET'MAP, your aeronautical weather chart ! - Copyright ORBIFLY December 2007 - Disclaimer

ORBIFLY MET'MAP TEAM :

Programming & Development : Alexandra Zaïnal
Concept & Development : Baudouin d'Aumeries
Co-Development & Prog : Marc-Olivier Méhu
Technical & hardware support : Manuel Goepfert

Contact : metmap@orbifly.com




SOURCES & CREDITS :

   NOAA